Location: Cluj-Napoca
(46.7712°N, 23.6236°E)
Time: 22:34:10
(UTC+02:00)

First-Move - Pass Details

Date: 04 December 2021
Orbit: 574 x 665 km, 97.6° (Epoch: 28 January)

Event Time Altitude Azimuth Distance (km) Brightness Sun altitude
Rises 05:46:04 0° 5° (N) 3,000 ? -21.0°
Reaches altitude 10° 05:48:26 10° 356° (N) 2,091 ? -20.6°
Enters shadow 05:49:30 16° 349° (N) 1,716 ? -20.4°
